LROP Weather Reports


time (UTC)temp
C
wind
direction
speed
KPH
gust
KPH
rain 1hr
cm
rain 24hr
cm
rain mn
cm
humidity
%
barometer
mb
20260507094802 22 80 11.3 0.0 0.00 0.00 0.00 38 1016.0
20260507093302 22 80 11.3 0.0 0.00 0.00 0.00 38 1016.0
20260507091803 21 80 11.3 0.0 0.00 0.00 0.00 46 1016.0
20260507090302 21 80 11.3 0.0 0.00 0.00 0.00 46 1016.0
20260507084802 20 90 14.5 0.0 0.00 0.00 0.00 49 1016.0
20260507083302 20 90 14.5 0.0 0.00 0.00 0.00 49 1016.0
20260507081802 18 90 14.5 0.0 0.00 0.00 0.00 52 1016.0
20260507080303 18 90 14.5 0.0 0.00 0.00 0.00 52 1016.0
20260507074802 17 90 11.3 0.0 0.00 0.00 0.00 56 1016.0
20260507073302 17 90 11.3 0.0 0.00 0.00 0.00 56 1016.0
20260507071802 17 90 11.3 0.0 0.00 0.00 0.00 64 1016.0
20260507070302 17 90 11.3 0.0 0.00 0.00 0.00 64 1016.0
20260507064802 15 90 11.3 0.0 0.00 0.00 0.00 68 1016.0
20260507063302 15 90 11.3 0.0 0.00 0.00 0.00 68 1016.0
20260507061814 13 80 11.3 0.0 0.00 0.00 0.00 72 1016.0
20260507060302 13 80 11.3 0.0 0.00 0.00 0.00 72 1016.0
20260507054802 12 70 11.3 0.0 0.00 0.00 0.00 82 1016.0
20260507053309 12 70 11.3 0.0 0.00 0.00 0.00 82 1016.0
20260507051802 11 70 12.9 0.0 0.00 0.00 0.00 82 1016.0
20260507050302 11 70 12.9 0.0 0.00 0.00 0.00 82 1016.0
20260507044802 10 60 11.3 0.0 0.00 0.00 0.00 88 1016.0
20260507043302 10 60 11.3 0.0 0.00 0.00 0.00 88 1016.0
20260507041802 10 40 9.7 0.0 0.00 0.00 0.00 88 1016.0
20260507040302 10 40 9.7 0.0 0.00 0.00 0.00 88 1016.0
20260507034802 10 40 8.0 0.0 0.00 0.00 0.00 88 1016.0
20260507033301 10 40 8.0 0.0 0.00 0.00 0.00 88 1016.0
20260507031802 8 30 4.8 0.0 0.00 0.00 0.00 87 1016.0
20260507030302 8 40 8.0 0.0 0.00 0.00 0.00 87 1016.0
20260507024802 8 70 8.0 0.0 0.00 0.00 0.00 87 1016.0
20260507023301 8 70 8.0 0.0 0.00 0.00 0.00 87 1016.0
20260507021802 8 60 11.3 0.0 0.00 0.00 0.00 94 1016.0
20260507020302 8 60 11.3 0.0 0.00 0.00 0.00 94 1016.0
20260507014802 8 60 8.0 0.0 0.00 0.00 0.00 87 1016.0
20260507013301 8 60 8.0 0.0 0.00 0.00 0.00 87 1016.0
20260507011802 10 60 11.3 0.0 0.00 0.00 0.00 88 1016.0
20260507010302 10 60 11.3 0.0 0.00 0.00 0.00 88 1016.0
20260507004801 11 50 16.1 0.0 0.00 0.00 0.00 82 1015.0
20260507003302 11 50 16.1 0.0 0.00 0.00 0.00 82 1015.0
20260507001802 11 30 12.9 0.0 0.00 0.00 0.00 82 1015.0
20260507000302 11 30 12.9 0.0 0.00 0.00 0.00 82 1015.0
20260506234802 12 30 11.3 0.0 0.00 0.00 0.00 77 1015.0
20260506233302 12 30 11.3 0.0 0.00 0.00 0.00 77 1015.0
20260506231802 12 30 11.3 0.0 0.00 0.00 0.00 77 1016.0
20260506230302 12 30 11.3 0.0 0.00 0.00 0.00 77 1016.0
20260506224801 12 40 11.3 0.0 0.00 0.00 0.00 77 1016.0
20260506223302 12 40 11.3 0.0 0.00 0.00 0.00 77 1016.0
20260506221801 12 70 11.3 0.0 0.00 0.00 0.00 77 1015.0
20260506220301 12 70 11.3 0.0 0.00 0.00 0.00 77 1015.0
20260506214818 16 100 11.3 0.0 0.00 0.00 0.00 48 1015.0
20260506213302 16 100 11.3 0.0 0.00 0.00 0.00 48 1015.0
20260506211802 16 130 12.9 0.0 0.00 0.00 0.00 55 1015.0
20260506210301 16 130 12.9 0.0 0.00 0.00 0.00 55 1015.0
20260506204802 16 130 12.9 0.0 0.00 0.00 0.00 55 1015.0
20260506203302 16 130 12.9 0.0 0.00 0.00 0.00 55 1015.0
20260506201802 16 120 11.3 0.0 0.00 0.00 0.00 59 1015.0
20260506200302 16 120 11.3 0.0 0.00 0.00 0.00 59 1015.0
20260506194821 17 120 12.9 0.0 0.00 0.00 0.00 56 1015.0
20260506193325 17 120 12.9 0.0 0.00 0.00 0.00 56 1015.0
20260506191802 17 110 14.5 0.0 0.00 0.00 0.00 52 1014.0
20260506190302 17 110 14.5 0.0 0.00 0.00 0.00 52 1014.0
20260506184807 17 100 16.1 0.0 0.00 0.00 0.00 56 1014.0
20260506183302 17 100 16.1 0.0 0.00 0.00 0.00 56 1014.0
20260506181802 18 100 12.9 0.0 0.00 0.00 0.00 52 1014.0
20260506180302 18 100 12.9 0.0 0.00 0.00 0.00 52 1014.0
20260506174802 18 100 12.9 0.0 0.00 0.00 0.00 52 1014.0
20260506173302 18 100 12.9 0.0 0.00 0.00 0.00 52 1014.0
20260506171802 22 110 16.1 0.0 0.00 0.00 0.00 41 1014.0
20260506170301 22 110 16.1 0.0 0.00 0.00 0.00 41 1014.0
20260506164802 22 110 17.7 0.0 0.00 0.00 0.00 36 1013.0
20260506163302 22 110 17.7 0.0 0.00 0.00 0.00 36 1013.0
20260506161802 23 100 16.1 0.0 0.00 0.00 0.00 34 1013.0
20260506160302 23 100 16.1 0.0 0.00 0.00 0.00 34 1013.0
20260506154802 23 100 17.7 0.0 0.00 0.00 0.00 36 1013.0
20260506153302 23 100 17.7 0.0 0.00 0.00 0.00 36 1013.0
20260506151801 25 100 17.7 0.0 0.00 0.00 0.00 34 1014.0
20260506150308 25 100 17.7 0.0 0.00 0.00 0.00 34 1014.0
20260506144802 25 90 17.7 0.0 0.00 0.00 0.00 34 1014.0
20260506143313 25 90 17.7 0.0 0.00 0.00 0.00 34 1014.0
20260506141802 25 100 17.7 0.0 0.00 0.00 0.00 36 1014.0
20260506140415 25 100 17.7 0.0 0.00 0.00 0.00 36 1014.0
20260506134827 26 120 9.7 0.0 0.00 0.00 0.00 34 1014.0
20260506133302 26 120 9.7 0.0 0.00 0.00 0.00 34 1014.0
20260506131802 25 90 11.3 0.0 0.00 0.00 0.00 39 1014.0
20260506130311 25 90 11.3 0.0 0.00 0.00 0.00 39 1014.0
20260506124802 25 8.0 0.0 0.00 0.00 0.00 30 1014.0
20260506123302 25 8.0 0.0 0.00 0.00 0.00 30 1014.0
20260506121802 23 4.8 0.0 0.00 0.00 0.00 34 1014.0
20260506120302 23 4.8 0.0 0.00 0.00 0.00 34 1014.0
20260506114801 25 100 12.9 0.0 0.00 0.00 0.00 36 1015.0
20260506113302 25 100 12.9 0.0 0.00 0.00 0.00 36 1015.0
20260506111802 23 150 12.9 0.0 0.00 0.00 0.00 36 1015.0
20260506110302 23 150 12.9 0.0 0.00 0.00 0.00 36 1015.0
20260506104802 23 130 14.5 0.0 0.00 0.00 0.00 36 1015.0
20260506103302 23 130 14.5 0.0 0.00 0.00 0.00 36 1015.0
20260506101802 23 160 12.9 0.0 0.00 0.00 0.00 31 1015.0
20260506100302 23 160 12.9 0.0 0.00 0.00 0.00 31 1015.0